sat.trackr.live / text

‹ back to catalog

STARLINK-32248

NORAD 61219 · 2024-171V

PAYLOAD ACTIVE UNKNOWN

§ Identity

Operator
Country
US
Launch date
2024-09-20
Launch site
AFWTR
Launch vehicle
Mass (kg)
RCS (m²)

Purposes: comms

External: N2YO · Heavens-Above · Gunter

§ Orbital elements

Epoch: 2026-09-21T21:24:57.163392Z

Period
94.01 min
Inclination
53.1589°
Eccentricity
0.0002040
Mean motion
15.31710343 rev/d
Perigee alt
469.3 km
Apogee alt
472.1 km
Semi-major
6,848.8 km
B*
7.7984e-5
RAAN
129.9886°
Arg perigee
33.7691°
Mean anomaly
326.3440°
Rev number
11,333

§ Raw data

STARLINK-322481 61219U 24171V   26264.89232828  .00002056  00000+0  77984-4 0  99972 61219  53.1589 129.9886 0002040  33.7691 326.3440 15.31710343113331

JSON: /api/v1/satellites/61219 · /tle

For live sub-satellite position, see the globe view (requires WebGL).

§ Visibility from observer

Set your observer location to see the next 7 days of passes ≥ 10°. The values pass through the URL so the page stays shareable.

No JS? Fill the form by hand. The geolocation button needs JavaScript.